Kuiper-00034

operational
NORAD ID: 63747 Int'l Des: 2025-088 Owner: KUIP Country: US Constellation: kuiper
LEOCIRCULAR

关于 Kuiper-00034

正在加载描述...

实时位置

正在加载3D地球...

即将过境

高度历史

Altitude vs Time

uPlot chart will show altitude changes over time

两行轨道根数

1 63747U 25088Z 26062.17699773 .00005524 00000-0 69151-3 0 9996
2 63747 51.9006 117.1550 0001704 334.0833 26.0045 14.83534752 46858
Epoch: Mar 3, 2026 • Age: 27 hours

当前状态

高度 632.1 km
速度 7.54 km/s
星下点 -44.46°S, 137.82°W
发射日期 Apr 28, 2025
运行时间 0.8 years
类型 internet

技术详情

分类 Payload
质量 490.00 kg
干质量 490.00 kg
总质量 490.00 kg
长度 1.80 m
直径 0.70 m
跨度 5.00 m
形状 Box + 2 pan
制造商 KUIP
平台类型 Kuiper
阶段状态 In Orbit
所有者/国家 KUIP/US

大型星座

Loading constellations...